Cloud_Cover
0 0 0 0 0 0 0 0 0 0 0 0 0 0 0 0 0 0 0 0 0 0 0 0 0 0 0 0 0 0 0 0 0 0 0 0 0 0 0 0 0 0 0 5
0 0 0 0 0 0 0 0 0 0 0 0 0 0 0 0 0 0 0 0 0 0 0 0 0 0 0 0 0 0 0 0 0 0 0 0 0 0 0 0 0 0 2 5
0 0 0 0 0 0 0 0 0 0 0 0 0 0 0 0 0 0 0 0 0 0 0 0 0 0 0 0 0 0 0 0 0 0 0 0 0 0 0 0 0 0 1 5
0 0 0 0 0 0 0 0 0 0 0 0 0 0 0 0 0 0 0 0 0 0 0 0 0 0 0 0 0 0 0 0 0 0 0 0 0 0 0 0 0 0 0 5
0 0 0 0 0 0 0 0 0 0 0 0 0 0 0 0 0 0 0 0 0 0 0 0 0 0 0 0 0 0 0 0 0 0 0 0 0 0 0 0 0 0 0 0
4 0 0 0 0 0 0 0 0 0 0 0 0 0 0 0 0 0 0 0 0 0 0 0 0 0 0 0 0 0 0 0 0 0 0 0 0 0 0 0 0 0 0 0
5 3 0 0 0 0 0 0 0 0 0 0 0 0 0 0 0 0 0 0 0 0 0 0 0 0 0 0 0 0 0 0 0 0 0 0 0 0 0 0 0 0 0 2
5 5 0 0 0 0 0 0 0 0 0 0 0 0 0 0 0 0 0 0 0 0 0 0 0 0 0 0 0 0 0 0 0 0 0 0 0 0 0 0 0 5 0 4
39 5 5 0 0 0 0 0 0 0 0 0 0 0 0 0 0 0 0 0 0 0 0 0 0 0 0 0 0 0 0 0 0 0 0 0 0 0 0 0 0 0 0 0
15 5 5 30 0 0 0 0 0 0 0 0 0 0 0 0 0 0 0 0 0 0 0 0 0 0 0 0 0 0 0 0 0 0 0 0 0 0 0 0 0 0 0 0
75 13 17 8 10 0 0 0 0 0 0 0 0 0 0 0 0 1 3 0 0 0 0 0 0 0 0 0 0 0 0 0 0 0 0 0 0 0 0 0 0 0 0 0
100 62 49 56 6 5 0 0 0 0 0 1 3 0 0 0 3 5 3 0 0 0 4 4 0 0 0 0 0 0 0 0 0 0 0 0 0 0 0 0 0 0 0 0
100 73 79 96 36 7 5 0 0 0 0 0 0 0 0 1 4 5 5 5 5 5 10 17 19 6 0 0 0 0 0 0 0 0 0 0 0 0 0 0 0 0 0 0
100 100 84 100 80 11 5 5 0 0 0 5 0 0 5 3 4 5 5 5 5 5 6 37 59 98 64 15 1 0 0 0 0 0 0 0 0 0 0 0 0 0 0 0
100 100 100 100 100 66 24 5 4 5 1 1 3 0 0 5 5 5 5 5 5 5 18 53 49 15 91 94 81 5 0 0 0 0 0 0 0 0 0 0 0 0 0 0
100 100 100 100 100 100 73 51 5 5 5 2 5 0 0 5 11 5 5 5 7 26 5 40 77 73 5 29 98 100 11 0 0 0 0 0 0 0 0 0 0 0 0 1
100 100 100 100 100 100 100 89 5 5 5 5 5 5 0 1 5 11 5 5 6 7 20 18 45 72 10 5 5 63 88 2 0 0 0 0 0 2 5 5 2 2 1 0
100 100 100 100 100 100 97 96 75 12 5 5 5 5 4 0 5 33 70 5 5 5 5 13 64 68 64 5 5 5 5 8 4 0 0 0 0 5 5 5 5 5 6 9
100 100 100 100 100 100 100 99 100 64 7 5 52 5 5 2 0 6 21 14 6 5 7 7 66 70 86 55 6 5 5 5 5 4 1 5 5 4 5 5 42 26 5 25
100 100 100 100 100 100 100 99 100 100 53 5 62 42 5 4 0 3 5 31 49 5 43 5 5 48 76 92 27 54 19 5 20 11 5 5 5 5 5 5 7 62 41 100
100 100 100 100 100 100 100 94 89 100 100 5 6 60 22 16 5 2 3 44 7 52 66 49 5 5 5 24 68 65 52 52 6 5 5 5 5 5 6 5 16 91 32 49
100 100 100 100 100 100 100 100 100 100 100 98 12 37 17 79 9 5 5 13 30 6 61 83 6 6 5 5 4 7 16 7 16 5 54 38 15 64 52 92 62 7 100 100
100 100 100 100 100 100 100 100 100 100 100 100 96 10 29 76 97 13 12 53 80 55 69 58 22 32 19 5 5 0 0 4 21 37 7 25 15 7 54 100 100 89 29 100
100 100 100 100 100 100 100 100 100 100 100 100 100 90 37 46 86 57 49 33 12 6 10 57 96 54 73 5 5 5 5 5 5 5 11 61 66 35 7 45 97 100 100 55
98 100 100 100 100 100 100 100 100 100 100 100 100 100 89 66 36 75 52 76 94 41 14 57 49 84 52 53 9 5 5 5 41 57 36 29 53 64 66 55 59 100 100 100
6 100 100 100 100 100 100 100 100 100 100 100 100 100 100 48 47 86 82 92 84 98 68 25 40 39 57 74 16 5 5 5 6 100 86 16 49 6 82 100 94 91 99 100